Location: Camaret
(48.2753°N, 4.5961°W)
Time: 03:35:59
(UTC+00:00)

ERS-2 - Pass Details

Date: 29 October 2020
Orbit: 493 x 497 km, 98.6° (Epoch: 01 December)

Event Time Altitude Azimuth Distance (km) Brightness Sun altitude
Rises 18:45:02 0° 5° (N) 2,590 5.7 -17.4°
Reaches altitude 10° 18:47:17 10° 353° (N) 1,702 4.9 -17.7°
Maximum altitude 18:50:27 28° 294° (WNW) 960 4.2 -18.3°
Drops below altitude 10° 18:53:35 10° 234° (SW) 1,691 5.6 -18.8°
Sets 18:55:49 0° 223° (SW) 2,569 6.4 -19.2°
